Regional Weather Roundup
Issued by NWS

Home | Current Version | Previous Version | Text Only | Print | Product List | Glossary On
Versions: 1 2 3 4 5 6 7 8 9 10 11 12 13 14 15 16 17 18 19 20 21 22 23 24 25 26 27 28 29 30 31 32 33 34 35 36 37 38 39 40 41 42 43 44 45 46 47 48 49 50
200
ASUS44 KMEG 041510
RWRTN
TENNESSEE HOURLY STATE WEATHER ROUNDUP
NATIONAL WEATHER SERVICE MEMPHIS TN
900 AM CST SUN DEC 04 2016

TNZ002-004-019-021-049-052-054-088>092-041600-
WEST TENNESSEE

CITY           SKY/WX    TMP DP  RH WIND       PRES   REMARKS
MEMPHIS INTL   CLOUDY    47  45  93 SE8       29.97S
NWS MEMPHIS      N/A     45 N/A N/A MISG        N/A
JACKSON        CLOUDY    45  44  97 VRB5      29.98F
DYERSBURG      CLOUDY   N/A N/A N/A E3        29.99R
UNION CITY     CLOUDY    41  41 100 VRB3      29.99S
PARIS          CLOUDY    39  39 100 E6        30.00F WCI  35
HUNTINGDON     FOG       43  43 100 E7        29.98F VSB 3/4
LEXINGTON      CLOUDY    43  43 100 CALM      30.00R
$$

TNZ008-025-027-028-033-062-065-066-041600-
NORTH MIDDLE TENNESSEE

CITY           SKY/WX    TMP DP  RH WIND       PRES   REMARKS
NASHVILLE      DRIZZLE   44  42  93 SE9       30.06S
PORTLAND       CLOUDY    43  43 100 SE7       30.04F
CLARKSVILLE    CLOUDY    43  40  89 SE6       30.04R
SMYRNA         LGT RAIN  44  43  96 SE10      30.07F FOG
CROSSVILLE     CLOUDY    39  37  92 E5        30.09F
$$

TNZ061-075-076-078-094-096-097-041600-
SOUTH MIDDLE TENNESSEE

CITY           SKY/WX    TMP DP  RH WIND       PRES   REMARKS
FAYETTEVILLE   CLOUDY    45  45 100 E8        30.05F FOG
TULLAHOMA      CLOUDY    43  43 100 CALM      30.08R
WINCHESTER     CLOUDY    45  43  93 SE14      30.07R
MCMINNVILLE    CLOUDY    43  43 100 E3        30.07R
COLUMBIA         N/A    N/A N/A N/A E3        30.02S
SHELBYVILLE    PTSUNNY   46  46 100 SE7       30.06S
$$

TNZ017-018-042-046-047-041600-
NORTHEAST TENNESSEE

CITY           SKY/WX    TMP DP  RH WIND       PRES   REMARKS
TRI CITIES     LGT RAIN  39  37  92 CALM      30.18R FOG
ELIZABETHTON   CLOUDY    45  41  87 VRB3      30.17S
$$

TNZ012-013-036-069-073-074-041600-
CENTRAL EAST TENNESSEE

CITY           SKY/WX    TMP DP  RH WIND       PRES   REMARKS
KNOXVILLE      NOT AVBL
OAK RIDGE      LGT RAIN  41  39  93 NE5       30.15R FOG
DOWNTOWN KNOXV CLOUDY    41  41 100 E5        30.15R FOG
GATLINBURG     PTSUNNY   39  37  93 CALM      30.14R
MORRISTOWN     CLOUDY    39  39 100 E7        30.13S FOG     WCI  34
JACKSBORO      CLOUDY    39  37  93 CALM      30.17F FOG
$$

TNZ083-085-099-041600-
SOUTHEAST TENNESSEE

CITY           SKY/WX    TMP DP  RH WIND       PRES   REMARKS
CHATTANOOGA    LGT RAIN  43  41  93 CALM      30.14S FOG
$$

SKY/WX REPORTED AS FAIR MEANS FEW OR NO CLOUDS BELOW
12 THOUSAND FEET.





USA.gov is the U.S. government's official web portal to all federal, state and local government web resources and services.